Time,TemperatureF,DewpointF,PressureIn,WindDirection,WindDirectionDegrees,WindSpeedMPH,WindSpeedGustMPH,Humidity,HourlyPrecipIn,Conditions,Clouds,dailyrainin,SoftwareType,DateUTC
2013-04-25 00:00:00,41.0,34.3,30.14,WSW,256,4.0,18.0,77,0.00,,---,0.31,VWS V13.01,2013-04-25 04:00:00,
2013-04-25 00:01:00,41.0,34.3,30.14,WSW,250,0.0,6.0,77,0.00,,---,0.00,VWS V13.01,2013-04-25 04:01:00,
2013-04-25 00:06:00,41.0,34.7,30.15,SW,233,4.0,8.0,78,0.00,,---,0.00,VWS V13.01,2013-04-25 04:06:00,
2013-04-25 00:11:00,40.9,34.6,30.15,West,273,10.0,13.0,78,0.00,,---,0.00,VWS V13.01,2013-04-25 04:11:00,
2013-04-25 00:16:00,40.9,34.6,30.15,WSW,253,2.0,13.0,78,0.00,,---,0.00,VWS V13.01,2013-04-25 04:16:00,
2013-04-25 00:21:00,40.9,34.6,30.15,WSW,237,5.0,13.0,78,0.00,,---,0.00,VWS V13.01,2013-04-25 04:21:00,
2013-04-25 00:26:00,40.8,34.5,30.15,WSW,243,5.0,13.0,78,0.00,,---,0.00,VWS V13.01,2013-04-25 04:26:00,
2013-04-25 00:31:00,40.8,34.5,30.15,West,277,5.0,8.0,78,0.00,,---,0.00,VWS V13.01,2013-04-25 04:31:00,
2013-04-25 00:36:00,40.8,34.5,30.15,West,273,2.0,10.0,78,0.00,,---,0.00,VWS V13.01,2013-04-25 04:36:00,
2013-04-25 00:41:00,40.8,34.5,30.15,SW,226,3.0,14.0,78,0.00,,---,0.00,VWS V13.01,2013-04-25 04:41:00,
2013-04-25 00:46:00,40.7,34.7,30.15,West,267,4.0,14.0,79,0.00,,---,0.00,VWS V13.01,2013-04-25 04:46:00,
2013-04-25 00:51:00,40.6,34.6,30.15,WNW,287,9.0,14.0,79,0.00,,---,0.00,VWS V13.01,2013-04-25 04:51:00,
2013-04-25 00:56:00,40.5,34.8,30.16,WNW,283,5.0,14.0,80,0.00,,---,0.00,VWS V13.01,2013-04-25 04:56:00,
2013-04-25 01:01:00,40.3,34.9,30.16,WNW,298,2.0,8.0,81,0.00,,---,0.00,VWS V13.01,2013-04-25 05:01:00,
2013-04-25 01:06:00,40.0,35.3,30.16,NW,318,1.0,9.0,83,0.00,,---,0.00,VWS V13.01,2013-04-25 05:06:00,
2013-04-25 01:11:00,39.6,35.5,30.16,NW,323,4.0,9.0,85,0.00,,---,0.00,VWS V13.01,2013-04-25 05:11:00,
2013-04-25 01:16:00,39.2,35.4,30.16,WNW,286,4.0,9.0,86,0.00,,---,0.00,VWS V13.01,2013-04-25 05:16:00,
2013-04-25 01:21:00,38.9,35.1,30.16,WNW,292,2.0,9.0,86,0.00,,---,0.00,VWS V13.01,2013-04-25 05:21:00,
2013-04-25 01:26:00,38.9,35.4,30.16,West,276,5.0,9.0,87,0.00,,---,0.00,VWS V13.01,2013-04-25 05:26:00,
2013-04-25 01:31:00,38.8,35.3,30.16,West,269,4.0,5.0,87,0.00,,---,0.00,VWS V13.01,2013-04-25 05:31:00,
2013-04-25 01:36:00,38.9,35.1,30.17,WNW,290,5.0,8.0,86,0.00,,---,0.00,VWS V13.01,2013-04-25 05:36:00,
2013-04-25 01:41:00,38.9,35.4,30.17,NW,307,7.0,11.0,87,0.00,,---,0.00,VWS V13.01,2013-04-25 05:41:00,
2013-04-25 01:46:00,38.4,34.6,30.18,NNW,329,2.0,15.0,86,0.00,,---,0.00,VWS V13.01,2013-04-25 05:46:00,
2013-04-25 01:51:00,38.0,34.5,30.18,West,280,6.0,15.0,87,0.00,,---,0.00,VWS V13.01,2013-04-25 05:51:00,
2013-04-25 01:56:00,37.9,34.7,30.17,SW,229,8.0,15.0,88,0.00,,---,0.00,VWS V13.01,2013-04-25 05:56:00,
2013-04-25 02:01:00,37.8,34.3,30.17,SW,225,6.0,7.0,87,0.00,,---,0.00,VWS V13.01,2013-04-25 06:01:00,
2013-04-25 02:06:00,37.8,34.6,30.17,WSW,242,5.0,7.0,88,0.00,,---,0.00,VWS V13.01,2013-04-25 06:06:00,
2013-04-25 02:11:00,37.8,34.6,30.18,WSW,240,3.0,7.0,88,0.00,,---,0.00,VWS V13.01,2013-04-25 06:11:00,
2013-04-25 02:16:00,37.9,34.7,30.18,West,268,1.0,7.0,88,0.00,,---,0.00,VWS V13.01,2013-04-25 06:16:00,
2013-04-25 02:21:00,38.0,34.8,30.18,West,263,2.0,8.0,88,0.00,,---,0.00,VWS V13.01,2013-04-25 06:21:00,
2013-04-25 02:26:00,38.1,34.9,30.18,WNW,294,1.0,8.0,88,0.00,,---,0.00,VWS V13.01,2013-04-25 06:26:00,
2013-04-25 02:31:00,38.2,34.7,30.18,West,275,1.0,6.0,87,0.00,,---,0.00,VWS V13.01,2013-04-25 06:31:00,
2013-04-25 02:36:00,38.3,34.8,30.18,WNW,289,3.0,7.0,87,0.00,,---,0.00,VWS V13.01,2013-04-25 06:36:00,
2013-04-25 02:41:00,38.3,34.8,30.18,WSW,251,2.0,7.0,87,0.00,,---,0.00,VWS V13.01,2013-04-25 06:41:00,
2013-04-25 02:46:00,38.4,35.2,30.18,West,276,1.0,7.0,88,0.00,,---,0.00,VWS V13.01,2013-04-25 06:46:00,
2013-04-25 02:51:00,38.4,34.9,30.19,SW,233,3.0,7.0,87,0.00,,---,0.00,VWS V13.01,2013-04-25 06:51:00,
2013-04-25 02:56:00,38.5,35.3,30.19,WNW,288,5.0,7.0,88,0.00,,---,0.00,VWS V13.01,2013-04-25 06:56:00,
2013-04-25 03:01:00,38.6,35.1,30.19,West,259,8.0,8.0,87,0.00,,---,0.00,VWS V13.01,2013-04-25 07:01:00,
2013-04-25 03:06:00,38.7,34.9,30.19,WSW,237,5.0,8.0,86,0.00,,---,0.00,VWS V13.01,2013-04-25 07:06:00,
2013-04-25 03:11:00,38.8,35.0,30.19,SW,229,1.0,8.0,86,0.00,,---,0.00,VWS V13.01,2013-04-25 07:11:00,
2013-04-25 03:16:00,38.8,35.0,30.19,WSW,248,8.0,11.0,86,0.00,,---,0.00,VWS V13.01,2013-04-25 07:16:00,
2013-04-25 03:21:00,38.9,34.8,30.19,WSW,238,4.0,11.0,85,0.00,,---,0.00,VWS V13.01,2013-04-25 07:21:00,
2013-04-25 03:26:00,38.9,34.8,30.19,WSW,251,4.0,11.0,85,0.00,,---,0.00,VWS V13.01,2013-04-25 07:26:00,
2013-04-25 03:31:00,38.9,34.8,30.19,WSW,237,5.0,7.0,85,0.00,,---,0.00,VWS V13.01,2013-04-25 07:31:00,
2013-04-25 03:36:00,38.9,34.5,30.20,West,260,4.0,7.0,84,0.00,,---,0.00,VWS V13.01,2013-04-25 07:36:00,
2013-04-25 03:41:00,38.8,34.4,30.20,SSW,203,5.0,8.0,84,0.00,,---,0.00,VWS V13.01,2013-04-25 07:41:00,
2013-04-25 03:46:00,38.6,34.2,30.20,WSW,246,4.0,8.0,84,0.00,,---,0.00,VWS V13.01,2013-04-25 07:46:00,
2013-04-25 03:51:00,38.4,34.0,30.20,WSW,238,3.0,8.0,84,0.00,,---,0.00,VWS V13.01,2013-04-25 07:51:00,
2013-04-25 03:56:00,38.3,33.9,30.21,WSW,257,4.0,8.0,84,0.00,,---,0.00,VWS V13.01,2013-04-25 07:56:00,
2013-04-25 04:01:00,38.2,33.8,30.21,SW,227,4.0,8.0,84,0.00,,---,0.00,VWS V13.01,2013-04-25 08:01:00,
2013-04-25 04:06:00,38.2,33.8,30.21,SW,235,4.0,8.0,84,0.00,,---,0.00,VWS V13.01,2013-04-25 08:06:00,
2013-04-25 04:11:00,38.1,33.7,30.21,WSW,237,5.0,8.0,84,0.00,,---,0.00,VWS V13.01,2013-04-25 08:11:00,
2013-04-25 04:16:00,37.9,33.5,30.21,SSW,209,3.0,8.0,84,0.00,,---,0.00,VWS V13.01,2013-04-25 08:16:00,
2013-04-25 04:21:00,37.8,33.4,30.22,SW,236,3.0,8.0,84,0.00,,---,0.00,VWS V13.01,2013-04-25 08:21:00,
2013-04-25 04:26:00,37.6,33.2,30.22,WSW,250,1.0,8.0,84,0.00,,---,0.00,VWS V13.01,2013-04-25 08:26:00,
2013-04-25 04:31:00,37.6,33.5,30.22,SW,235,5.0,6.0,85,0.00,,---,0.00,VWS V13.01,2013-04-25 08:31:00,
2013-04-25 04:36:00,37.7,33.3,30.22,WSW,250,7.0,8.0,84,0.00,,---,0.00,VWS V13.01,2013-04-25 08:36:00,
2013-04-25 04:41:00,37.7,33.3,30.22,WSW,254,4.0,8.0,84,0.00,,---,0.00,VWS V13.01,2013-04-25 08:41:00,
2013-04-25 04:46:00,37.7,33.3,30.22,WSW,250,3.0,8.0,84,0.00,,---,0.00,VWS V13.01,2013-04-25 08:46:00,
2013-04-25 04:51:00,37.6,33.2,30.23,West,273,5.0,8.0,84,0.00,,---,0.00,VWS V13.01,2013-04-25 08:51:00,
2013-04-25 04:56:00,37.5,33.1,30.23,SW,227,2.0,8.0,84,0.00,,---,0.00,VWS V13.01,2013-04-25 08:56:00,
2013-04-25 05:01:00,37.4,33.3,30.22,West,261,0.0,2.0,85,0.00,,---,0.00,VWS V13.01,2013-04-25 09:01:00,
2013-04-25 05:06:00,37.3,33.2,30.22,SW,216,0.0,5.0,85,0.00,,---,0.00,VWS V13.01,2013-04-25 09:06:00,
2013-04-25 05:11:00,37.1,33.0,30.22,WSW,240,0.0,5.0,85,0.00,,---,0.00,VWS V13.01,2013-04-25 09:11:00,
2013-04-25 05:16:00,37.0,32.9,30.22,WSW,240,2.0,5.0,85,0.00,,---,0.00,VWS V13.01,2013-04-25 09:16:00,
2013-04-25 05:21:00,36.9,33.1,30.23,WSW,240,1.0,5.0,86,0.00,,---,0.00,VWS V13.01,2013-04-25 09:21:00,
2013-04-25 05:26:00,36.8,33.0,30.23,WSW,240,0.0,5.0,86,0.00,,---,0.00,VWS V13.01,2013-04-25 09:26:00,
2013-04-25 05:31:00,36.9,33.1,30.23,SW,217,2.0,4.0,86,0.00,,---,0.00,VWS V13.01,2013-04-25 09:31:00,
2013-04-25 05:36:00,37.0,33.5,30.23,SW,217,3.0,4.0,87,0.00,,---,0.00,VWS V13.01,2013-04-25 09:36:00,
2013-04-25 05:41:00,37.0,33.5,30.23,SW,216,2.0,4.0,87,0.00,,---,0.00,VWS V13.01,2013-04-25 09:41:00,
2013-04-25 05:46:00,37.1,33.3,30.23,SW,215,2.0,5.0,86,0.00,,---,0.00,VWS V13.01,2013-04-25 09:46:00,
2013-04-25 05:51:00,37.0,33.2,30.23,SW,217,2.0,5.0,86,0.00,,---,0.00,VWS V13.01,2013-04-25 09:51:00,
2013-04-25 05:56:00,36.9,33.1,30.24,SW,216,1.0,5.0,86,0.00,,---,0.00,VWS V13.01,2013-04-25 09:56:00,
2013-04-25 06:01:00,36.7,32.9,30.24,SW,216,3.0,3.0,86,0.00,,---,0.00,VWS V13.01,2013-04-25 10:01:00,
2013-04-25 06:06:00,36.5,32.7,30.24,SW,216,2.0,4.0,86,0.00,,---,0.00,VWS V13.01,2013-04-25 10:06:00,
2013-04-25 06:11:00,36.3,32.5,30.24,SW,216,1.0,4.0,86,0.00,,---,0.00,VWS V13.01,2013-04-25 10:11:00,
2013-04-25 06:16:00,36.1,32.6,30.24,SW,216,3.0,4.0,87,0.00,,---,0.00,VWS V13.01,2013-04-25 10:16:00,
2013-04-25 06:21:00,36.0,32.5,30.24,SW,216,2.0,4.0,87,0.00,,---,0.00,VWS V13.01,2013-04-25 10:21:00,
2013-04-25 06:26:00,35.9,32.7,30.24,SW,216,2.0,4.0,88,0.00,,---,0.00,VWS V13.01,2013-04-25 10:26:00,
2013-04-25 06:31:00,35.9,32.7,30.24,SW,220,2.0,5.0,88,0.00,,---,0.00,VWS V13.01,2013-04-25 10:31:00,
2013-04-25 06:36:00,36.0,33.1,30.25,SW,225,3.0,6.0,89,0.00,,---,0.00,VWS V13.01,2013-04-25 10:36:00,
2013-04-25 06:41:00,36.2,33.0,30.24,SW,222,3.0,6.0,88,0.00,,---,0.00,VWS V13.01,2013-04-25 10:41:00,
2013-04-25 06:46:00,36.4,33.2,30.24,SW,222,0.0,6.0,88,0.00,,---,0.00,VWS V13.01,2013-04-25 10:46:00,
2013-04-25 06:51:00,36.5,33.3,30.25,SW,222,3.0,6.0,88,0.00,,---,0.00,VWS V13.01,2013-04-25 10:51:00,
2013-04-25 06:56:00,36.6,33.4,30.25,WSW,240,3.0,6.0,88,0.00,,---,0.00,VWS V13.01,2013-04-25 10:56:00,
2013-04-25 07:01:00,36.6,33.4,30.25,SW,236,2.0,3.0,88,0.00,,---,0.00,VWS V13.01,2013-04-25 11:01:00,
2013-04-25 07:06:00,36.7,33.5,30.25,WSW,244,1.0,5.0,88,0.00,,---,0.00,VWS V13.01,2013-04-25 11:06:00,
2013-04-25 07:11:00,36.8,33.6,30.25,SSW,213,4.0,5.0,88,0.00,,---,0.00,VWS V13.01,2013-04-25 11:11:00,
2013-04-25 07:16:00,36.9,33.4,30.25,SW,224,2.0,5.0,87,0.00,,---,0.00,VWS V13.01,2013-04-25 11:16:00,
2013-04-25 07:21:00,37.0,33.8,30.25,SW,222,4.0,5.0,88,0.00,,---,0.00,VWS V13.01,2013-04-25 11:21:00,
2013-04-25 07:26:00,37.0,33.8,30.26,SW,223,0.0,5.0,88,0.00,,---,0.00,VWS V13.01,2013-04-25 11:26:00,
2013-04-25 07:31:00,37.1,33.9,30.26,SW,221,2.0,3.0,88,0.00,,---,0.00,VWS V13.01,2013-04-25 11:31:00,
2013-04-25 07:36:00,37.1,33.9,30.26,SW,227,3.0,5.0,88,0.00,,---,0.00,VWS V13.01,2013-04-25 11:36:00,
2013-04-25 07:41:00,37.3,34.1,30.26,SW,232,4.0,7.0,88,0.00,,---,0.00,VWS V13.01,2013-04-25 11:41:00,
2013-04-25 07:46:00,37.3,34.1,30.27,SW,231,4.0,7.0,88,0.00,,---,0.00,VWS V13.01,2013-04-25 11:46:00,
2013-04-25 07:51:00,37.5,34.3,30.27,SW,220,5.0,7.0,88,0.00,,---,0.00,VWS V13.01,2013-04-25 11:51:00,
2013-04-25 07:56:00,37.6,34.4,30.26,SSW,212,4.0,7.0,88,0.00,,---,0.00,VWS V13.01,2013-04-25 11:56:00,
2013-04-25 08:01:00,37.8,34.3,30.26,SW,216,1.0,3.0,87,0.00,,---,0.00,VWS V13.01,2013-04-25 12:01:00,
2013-04-25 08:06:00,38.1,34.6,30.26,SSW,212,4.0,5.0,87,0.00,,---,0.00,VWS V13.01,2013-04-25 12:06:00,
2013-04-25 08:11:00,38.4,34.9,30.27,SSW,205,4.0,6.0,87,0.00,,---,0.00,VWS V13.01,2013-04-25 12:11:00,
2013-04-25 08:16:00,38.8,35.0,30.27,SW,222,3.0,6.0,86,0.00,,---,0.00,VWS V13.01,2013-04-25 12:16:00,
2013-04-25 08:21:00,39.1,35.0,30.27,SSW,198,3.0,6.0,85,0.00,,---,0.00,VWS V13.01,2013-04-25 12:21:00,
2013-04-25 08:26:00,39.5,35.4,30.27,SW,223,2.0,6.0,85,0.00,,---,0.00,VWS V13.01,2013-04-25 12:26:00,
2013-04-25 08:31:00,39.9,35.5,30.27,SW,219,2.0,3.0,84,0.00,,---,0.00,VWS V13.01,2013-04-25 12:31:00,
2013-04-25 08:36:00,40.3,35.2,30.27,SW,224,4.0,7.0,82,0.00,,---,0.00,VWS V13.01,2013-04-25 12:36:00,
2013-04-25 08:41:00,40.4,34.7,30.27,SW,223,7.0,10.0,80,0.00,,---,0.00,VWS V13.01,2013-04-25 12:41:00,
2013-04-25 08:46:00,40.8,35.1,30.27,SW,227,6.0,10.0,80,0.00,,---,0.00,VWS V13.01,2013-04-25 12:46:00,
2013-04-25 08:51:00,41.2,35.8,30.28,SW,219,2.0,10.0,81,0.00,,---,0.00,VWS V13.01,2013-04-25 12:51:00,
2013-04-25 08:56:00,41.7,35.7,30.28,SSW,202,4.0,10.0,79,0.00,,---,0.00,VWS V13.01,2013-04-25 12:56:00,
2013-04-25 09:01:00,42.3,36.6,30.28,SW,236,3.0,5.0,80,0.00,,---,0.00,VWS V13.01,2013-04-25 13:01:00,
2013-04-25 09:06:00,42.4,35.7,30.28,SW,222,2.0,5.0,77,0.00,,---,0.00,VWS V13.01,2013-04-25 13:06:00,
2013-04-25 09:11:00,42.0,34.0,30.28,West,261,4.0,7.0,73,0.00,,---,0.00,VWS V13.01,2013-04-25 13:11:00,
2013-04-25 09:16:00,41.5,33.2,30.28,WSW,257,1.0,9.0,72,0.00,,---,0.00,VWS V13.01,2013-04-25 13:16:00,
2013-04-25 09:21:00,41.1,32.4,30.28,WSW,245,0.0,9.0,71,0.00,,---,0.00,VWS V13.01,2013-04-25 13:21:00,
2013-04-25 09:26:00,41.3,33.0,30.28,WSW,250,1.0,9.0,72,0.00,,---,0.00,VWS V13.01,2013-04-25 13:26:00,
2013-04-25 09:31:00,42.2,33.8,30.28,SSW,195,1.0,4.0,72,0.00,,---,0.00,VWS V13.01,2013-04-25 13:31:00,
2013-04-25 09:36:00,42.8,33.3,30.28,West,261,5.0,10.0,69,0.00,,---,0.00,VWS V13.01,2013-04-25 13:36:00,
2013-04-25 09:41:00,42.4,31.9,30.28,West,278,4.0,10.0,66,0.00,,---,0.00,VWS V13.01,2013-04-25 13:41:00,
2013-04-25 09:46:00,42.0,32.2,30.29,West,259,2.0,10.0,68,0.00,,---,0.00,VWS V13.01,2013-04-25 13:46:00,
2013-04-25 09:51:00,41.9,32.8,30.29,West,262,1.0,10.0,70,0.00,,---,0.00,VWS V13.01,2013-04-25 13:51:00,
2013-04-25 09:56:00,41.9,32.5,30.29,WSW,237,5.0,10.0,69,0.00,,---,0.00,VWS V13.01,2013-04-25 13:56:00,
2013-04-25 10:01:00,41.8,32.4,30.29,SSW,205,4.0,6.0,69,0.00,,---,0.00,VWS V13.01,2013-04-25 14:01:00,
2013-04-25 10:06:00,41.9,32.1,30.29,SW,222,5.0,9.0,68,0.00,,---,0.00,VWS V13.01,2013-04-25 14:06:00,
2013-04-25 10:11:00,41.8,31.3,30.29,SW,221,5.0,10.0,66,0.00,,---,0.00,VWS V13.01,2013-04-25 14:11:00,
2013-04-25 10:16:00,42.2,32.0,30.29,SSW,213,5.0,10.0,67,0.00,,---,0.00,VWS V13.01,2013-04-25 14:16:00,
2013-04-25 10:21:00,43.2,31.9,30.28,SW,223,4.0,11.0,64,0.00,,---,0.00,VWS V13.01,2013-04-25 14:21:00,
2013-04-25 10:26:00,44.1,33.5,30.28,SW,215,4.0,11.0,66,0.00,,---,0.00,VWS V13.01,2013-04-25 14:26:00,
2013-04-25 10:31:00,45.0,33.6,30.28,SSW,202,5.0,8.0,64,0.00,,---,0.00,VWS V13.01,2013-04-25 14:31:00,
2013-04-25 10:36:00,45.4,34.3,30.28,SSW,193,4.0,8.0,65,0.00,,---,0.00,VWS V13.01,2013-04-25 14:36:00,
2013-04-25 10:41:00,45.8,33.9,30.28,WSW,239,3.0,10.0,63,0.00,,---,0.00,VWS V13.01,2013-04-25 14:41:00,
2013-04-25 10:46:00,45.9,32.8,30.28,South,175,1.0,10.0,60,0.00,,---,0.00,VWS V13.01,2013-04-25 14:46:00,
2013-04-25 10:51:00,46.3,33.6,30.28,SSW,198,2.0,10.0,61,0.00,,---,0.00,VWS V13.01,2013-04-25 14:51:00,
2013-04-25 10:56:00,46.9,35.0,30.28,SW,221,3.0,12.0,63,0.00,,---,0.00,VWS V13.01,2013-04-25 14:56:00,
2013-04-25 11:01:00,47.1,34.8,30.28,SSW,201,7.0,10.0,62,0.00,,---,0.00,VWS V13.01,2013-04-25 15:01:00,
2013-04-25 11:06:00,47.4,34.2,30.28,South,184,7.0,10.0,60,0.00,,---,0.00,VWS V13.01,2013-04-25 15:06:00,
2013-04-25 11:11:00,47.7,34.9,30.28,SW,227,5.0,10.0,61,0.00,,---,0.00,VWS V13.01,2013-04-25 15:11:00,
2013-04-25 11:16:00,47.6,34.0,30.28,SW,236,4.0,10.0,59,0.00,,---,0.00,VWS V13.01,2013-04-25 15:16:00,
2013-04-25 11:21:00,47.9,35.5,30.28,SSW,205,4.0,10.0,62,0.00,,---,0.00,VWS V13.01,2013-04-25 15:21:00,
2013-04-25 11:26:00,47.8,33.8,30.28,West,271,5.0,10.0,58,0.00,,---,0.00,VWS V13.01,2013-04-25 15:26:00,
2013-04-25 11:31:00,47.6,33.6,30.28,WNW,286,6.0,9.0,58,0.00,,---,0.00,VWS V13.01,2013-04-25 15:31:00,
2013-04-25 11:36:00,47.8,34.6,30.28,WSW,244,6.0,9.0,60,0.00,,---,0.00,VWS V13.01,2013-04-25 15:36:00,
2013-04-25 11:41:00,47.9,33.8,30.28,SSW,192,5.0,11.0,58,0.00,,---,0.00,VWS V13.01,2013-04-25 15:41:00,
2013-04-25 11:46:00,48.3,34.7,30.28,SSW,196,5.0,11.0,59,0.00,,---,0.00,VWS V13.01,2013-04-25 15:46:00,
2013-04-25 11:51:00,48.4,33.0,30.28,SW,221,6.0,12.0,55,0.00,,---,0.00,VWS V13.01,2013-04-25 15:51:00,
2013-04-25 11:56:00,48.1,33.2,30.28,SW,226,8.0,12.0,56,0.00,,---,0.00,VWS V13.01,2013-04-25 15:56:00,
2013-04-25 12:01:00,48.3,34.2,30.28,WSW,246,9.0,10.0,58,0.00,,---,0.00,VWS V13.01,2013-04-25 16:01:00,
2013-04-25 12:06:00,48.7,35.0,30.28,WSW,242,7.0,11.0,59,0.00,,---,0.00,VWS V13.01,2013-04-25 16:06:00,
2013-04-25 12:11:00,49.2,33.3,30.28,SW,220,7.0,14.0,54,0.00,,---,0.00,VWS V13.01,2013-04-25 16:11:00,
2013-04-25 12:16:00,49.4,33.9,30.28,SSW,213,11.0,14.0,55,0.00,,---,0.00,VWS V13.01,2013-04-25 16:16:00,
2013-04-25 12:21:00,49.7,33.8,30.28,SSW,200,8.0,14.0,54,0.00,,---,0.00,VWS V13.01,2013-04-25 16:21:00,
2013-04-25 12:26:00,49.8,33.8,30.28,SW,229,6.0,14.0,54,0.00,,---,0.00,VWS V13.01,2013-04-25 16:26:00,
2013-04-25 12:31:00,49.7,34.2,30.28,WSW,239,8.0,9.0,55,0.00,,---,0.00,VWS V13.01,2013-04-25 16:31:00,
2013-04-25 12:36:00,49.9,34.8,30.28,SW,215,4.0,9.0,56,0.00,,---,0.00,VWS V13.01,2013-04-25 16:36:00,
2013-04-25 12:41:00,50.6,35.5,30.27,SSW,206,7.0,16.0,56,0.00,,---,0.00,VWS V13.01,2013-04-25 16:41:00,
2013-04-25 12:46:00,50.9,34.4,30.27,SW,214,9.0,16.0,53,0.00,,---,0.00,VWS V13.01,2013-04-25 16:46:00,
2013-04-25 12:51:00,50.8,33.8,30.27,WSW,247,4.0,16.0,52,0.00,,---,0.00,VWS V13.01,2013-04-25 16:51:00,
2013-04-25 12:56:00,50.9,33.9,30.27,SSW,201,7.0,16.0,52,0.00,,---,0.00,VWS V13.01,2013-04-25 16:56:00,
2013-04-25 13:01:00,51.0,34.0,30.27,WSW,242,6.0,9.0,52,0.00,,---,0.00,VWS V13.01,2013-04-25 17:01:00,
2013-04-25 13:06:00,51.2,35.1,30.27,SSW,209,1.0,9.0,54,0.00,,---,0.00,VWS V13.01,2013-04-25 17:06:00,
2013-04-25 13:11:00,51.7,32.7,30.26,SW,223,6.0,15.0,48,0.00,,---,0.00,VWS V13.01,2013-04-25 17:11:00,
2013-04-25 13:16:00,51.5,33.5,30.26,SSW,196,2.0,15.0,50,0.00,,---,0.00,VWS V13.01,2013-04-25 17:16:00,
2013-04-25 13:21:00,51.8,34.3,30.26,WSW,249,4.0,15.0,51,0.00,,---,0.00,VWS V13.01,2013-04-25 17:21:00,
2013-04-25 13:26:00,52.1,36.0,30.26,SSW,198,11.0,15.0,54,0.00,,---,0.00,VWS V13.01,2013-04-25 17:26:00,
2013-04-25 13:31:00,52.4,34.8,30.26,South,188,7.0,7.0,51,0.00,,---,0.00,VWS V13.01,2013-04-25 17:31:00,
2013-04-25 13:36:00,52.6,35.5,30.26,SW,221,10.0,12.0,52,0.00,,---,0.00,VWS V13.01,2013-04-25 17:36:00,
2013-04-25 13:41:00,52.7,33.6,30.26,SSW,195,11.0,13.0,48,0.00,,---,0.00,VWS V13.01,2013-04-25 17:41:00,
2013-04-25 13:46:00,52.7,34.1,30.26,SSW,194,10.0,15.0,49,0.00,,---,0.00,VWS V13.01,2013-04-25 17:46:00,
2013-04-25 13:51:00,52.7,34.1,30.26,SSW,209,13.0,15.0,49,0.00,,---,0.00,VWS V13.01,2013-04-25 17:51:00,
2013-04-25 13:56:00,52.9,32.2,30.26,SW,232,7.0,15.0,45,0.00,,---,0.00,VWS V13.01,2013-04-25 17:56:00,
2013-04-25 14:01:00,53.2,33.5,30.26,WSW,241,9.0,11.0,47,0.00,,---,0.00,VWS V13.01,2013-04-25 18:01:00,
2013-04-25 14:06:00,53.6,34.9,30.26,SW,219,5.0,11.0,49,0.00,,---,0.00,VWS V13.01,2013-04-25 18:06:00,
2013-04-25 14:11:00,54.1,34.9,30.26,West,275,6.0,13.0,48,0.00,,---,0.00,VWS V13.01,2013-04-25 18:11:00,
2013-04-25 14:16:00,54.2,34.4,30.26,SW,230,4.0,14.0,47,0.00,,---,0.00,VWS V13.01,2013-04-25 18:16:00,
2013-04-25 14:21:00,54.4,32.4,30.25,South,191,11.0,16.0,43,0.00,,---,0.00,VWS V13.01,2013-04-25 18:21:00,
2013-04-25 14:26:00,54.3,32.3,30.25,SW,229,9.0,16.0,43,0.00,,---,0.00,VWS V13.01,2013-04-25 18:26:00,
2013-04-25 14:31:00,54.2,32.8,30.25,WSW,240,7.0,12.0,44,0.00,,---,0.00,VWS V13.01,2013-04-25 18:31:00,
2013-04-25 14:36:00,54.3,35.6,30.25,South,182,6.0,12.0,49,0.00,,---,0.00,VWS V13.01,2013-04-25 18:36:00,
2013-04-25 14:41:00,54.6,33.1,30.24,SE,141,6.0,12.0,44,0.00,,---,0.00,VWS V13.01,2013-04-25 18:41:00,
2013-04-25 14:46:00,54.5,33.6,30.24,SW,236,8.0,15.0,45,0.00,,---,0.00,VWS V13.01,2013-04-25 18:46:00,
2013-04-25 14:51:00,55.0,34.6,30.24,WSW,242,10.0,15.0,46,0.00,,---,0.00,VWS V13.01,2013-04-25 18:51:00,
2013-04-25 14:56:00,55.3,34.3,30.24,North,351,6.0,15.0,45,0.00,,---,0.00,VWS V13.01,2013-04-25 18:56:00,
2013-04-25 15:01:00,55.7,36.3,30.24,WNW,290,2.0,10.0,48,0.00,,---,0.00,VWS V13.01,2013-04-25 19:01:00,
2013-04-25 15:06:00,56.4,35.3,30.24,SSW,213,10.0,15.0,45,0.00,,---,0.00,VWS V13.01,2013-04-25 19:06:00,
2013-04-25 15:11:00,56.2,34.0,30.24,SW,219,8.0,16.0,43,0.00,,---,0.00,VWS V13.01,2013-04-25 19:11:00,
2013-04-25 15:16:00,55.9,33.8,30.24,SW,235,12.0,17.0,43,0.00,,---,0.00,VWS V13.01,2013-04-25 19:16:00,
2013-04-25 15:21:00,55.9,33.8,30.23,SSW,206,7.0,17.0,43,0.00,,---,0.00,VWS V13.01,2013-04-25 19:21:00,
2013-04-25 15:26:00,56.1,35.1,30.23,SW,219,9.0,17.0,45,0.00,,---,0.00,VWS V13.01,2013-04-25 19:26:00,
2013-04-25 15:31:00,56.5,34.9,30.23,South,191,13.0,13.0,44,0.00,,---,0.00,VWS V13.01,2013-04-25 19:31:00,
2013-04-25 15:36:00,56.5,34.9,30.23,SW,225,3.0,16.0,44,0.00,,---,0.00,VWS V13.01,2013-04-25 19:36:00,
2013-04-25 15:41:00,56.7,32.7,30.22,WSW,245,8.0,16.0,40,0.00,,---,0.00,VWS V13.01,2013-04-25 19:41:00,
2013-04-25 15:46:00,57.2,33.1,30.22,WSW,238,8.0,16.0,40,0.00,,---,0.00,VWS V13.01,2013-04-25 19:46:00,
2013-04-25 15:51:00,57.4,33.9,30.22,WSW,257,5.0,16.0,41,0.00,,---,0.00,VWS V13.01,2013-04-25 19:51:00,
2013-04-25 15:56:00,57.7,34.2,30.21,SSW,196,9.0,16.0,41,0.00,,---,0.00,VWS V13.01,2013-04-25 19:56:00,
2013-04-25 16:01:00,57.7,33.6,30.21,SW,223,15.0,15.0,40,0.00,,---,0.00,VWS V13.01,2013-04-25 20:01:00,
2013-04-25 16:06:00,58.0,33.8,30.21,SW,225,6.0,15.0,40,0.00,,---,0.00,VWS V13.01,2013-04-25 20:06:00,
2013-04-25 16:11:00,57.9,32.5,30.21,SW,219,14.0,16.0,38,0.00,,---,0.00,VWS V13.01,2013-04-25 20:11:00,
2013-04-25 16:16:00,57.6,32.8,30.21,SW,233,7.0,20.0,39,0.00,,---,0.00,VWS V13.01,2013-04-25 20:16:00,
2013-04-25 16:21:00,57.6,32.8,30.21,SW,217,7.0,20.0,39,0.00,,---,0.00,VWS V13.01,2013-04-25 20:21:00,
2013-04-25 16:26:00,58.0,32.6,30.21,SW,215,13.0,20.0,38,0.00,,---,0.00,VWS V13.01,2013-04-25 20:26:00,
2013-04-25 16:31:00,57.8,31.0,30.21,WSW,240,10.0,13.0,36,0.00,,---,0.00,VWS V13.01,2013-04-25 20:31:00,
2013-04-25 16:36:00,57.9,29.7,30.21,WSW,246,14.0,16.0,34,0.00,,---,0.00,VWS V13.01,2013-04-25 20:36:00,
2013-04-25 16:41:00,58.1,33.3,30.21,WSW,249,9.0,16.0,39,0.00,,---,0.00,VWS V13.01,2013-04-25 20:41:00,
2013-04-25 16:46:00,58.7,33.2,30.21,SW,217,7.0,16.0,38,0.00,,---,0.00,VWS V13.01,2013-04-25 20:46:00,
2013-04-25 16:51:00,59.0,30.7,30.21,SSW,212,11.0,16.0,34,0.00,,---,0.00,VWS V13.01,2013-04-25 20:51:00,
2013-04-25 16:56:00,58.6,31.8,30.20,SW,229,6.0,16.0,36,0.00,,---,0.00,VWS V13.01,2013-04-25 20:56:00,
2013-04-25 17:01:00,58.2,32.1,30.20,SSW,213,7.0,12.0,37,0.00,,---,0.00,VWS V13.01,2013-04-25 21:01:00,
2013-04-25 17:06:00,58.7,32.5,30.20,West,271,2.0,14.0,37,0.00,,---,0.00,VWS V13.01,2013-04-25 21:06:00,
2013-04-25 17:11:00,59.1,31.5,30.20,West,279,3.0,16.0,35,0.00,,---,0.00,VWS V13.01,2013-04-25 21:11:00,
2013-04-25 17:16:00,58.5,28.8,30.21,SW,236,11.0,16.0,32,0.00,,---,0.00,VWS V13.01,2013-04-25 21:16:00,
2013-04-25 17:21:00,57.6,29.5,30.21,WSW,252,6.0,16.0,34,0.00,,---,0.00,VWS V13.01,2013-04-25 21:21:00,
2013-04-25 17:26:00,57.6,30.2,30.21,SW,223,10.0,16.0,35,0.00,,---,0.00,VWS V13.01,2013-04-25 21:26:00,
2013-04-25 17:31:00,57.3,28.5,30.21,SSW,192,6.0,15.0,33,0.00,,---,0.00,VWS V13.01,2013-04-25 21:31:00,
2013-04-25 17:36:00,57.1,28.3,30.22,SW,227,6.0,15.0,33,0.00,,---,0.00,VWS V13.01,2013-04-25 21:36:00,
2013-04-25 17:41:00,56.9,28.8,30.22,SW,235,8.0,15.0,34,0.00,,---,0.00,VWS V13.01,2013-04-25 21:41:00,
2013-04-25 17:46:00,56.6,29.3,30.22,West,279,5.0,16.0,35,0.00,,---,0.00,VWS V13.01,2013-04-25 21:46:00,
2013-04-25 17:51:00,56.6,30.0,30.22,NW,310,2.0,16.0,36,0.00,,---,0.00,VWS V13.01,2013-04-25 21:51:00,
2013-04-25 17:56:00,56.7,28.7,30.22,WSW,240,3.0,16.0,34,0.00,,---,0.00,VWS V13.01,2013-04-25 21:56:00,
2013-04-25 18:01:00,56.6,28.6,30.22,SW,225,10.0,10.0,34,0.00,,---,0.00,VWS V13.01,2013-04-25 22:01:00,
2013-04-25 18:06:00,56.6,29.3,30.23,West,267,9.0,15.0,35,0.00,,---,0.00,VWS V13.01,2013-04-25 22:06:00,
2013-04-25 18:11:00,56.5,29.2,30.23,West,271,2.0,15.0,35,0.00,,---,0.00,VWS V13.01,2013-04-25 22:11:00,
2013-04-25 18:16:00,56.5,29.2,30.23,WSW,240,4.0,15.0,35,0.00,,---,0.00,VWS V13.01,2013-04-25 22:16:00,
2013-04-25 18:21:00,56.5,29.9,30.23,SSW,213,8.0,21.0,36,0.00,,---,0.00,VWS V13.01,2013-04-25 22:21:00,
2013-04-25 18:26:00,56.5,29.2,30.23,WSW,252,11.0,21.0,35,0.00,,---,0.00,VWS V13.01,2013-04-25 22:26:00,
2013-04-25 18:31:00,56.9,30.9,30.23,SW,233,8.0,10.0,37,0.00,,---,0.00,VWS V13.01,2013-04-25 22:31:00,
2013-04-25 18:36:00,57.1,30.4,30.23,SW,227,9.0,17.0,36,0.00,,---,0.00,VWS V13.01,2013-04-25 22:36:00,
2013-04-25 18:41:00,56.7,30.1,30.23,SW,226,6.0,17.0,36,0.00,,---,0.00,VWS V13.01,2013-04-25 22:41:00,
2013-04-25 18:46:00,56.3,29.7,30.23,West,277,5.0,17.0,36,0.00,,---,0.00,VWS V13.01,2013-04-25 22:46:00,
2013-04-25 18:51:00,56.1,30.2,30.23,West,271,11.0,17.0,37,0.00,,---,0.00,VWS V13.01,2013-04-25 22:51:00,
2013-04-25 18:56:00,55.7,30.5,30.24,SW,224,10.0,20.0,38,0.00,,---,0.00,VWS V13.01,2013-04-25 22:56:00,
2013-04-25 19:01:00,55.4,29.6,30.24,West,279,5.0,15.0,37,0.00,,---,0.00,VWS V13.01,2013-04-25 23:01:00,
2013-04-25 19:06:00,55.2,30.7,30.24,West,259,4.0,15.0,39,0.00,,---,0.00,VWS V13.01,2013-04-25 23:06:00,
2013-04-25 19:11:00,55.2,31.3,30.24,West,269,5.0,15.0,40,0.00,,---,0.00,VWS V13.01,2013-04-25 23:11:00,
2013-04-25 19:16:00,55.1,30.6,30.24,WSW,253,14.0,16.0,39,0.00,,---,0.00,VWS V13.01,2013-04-25 23:16:00,
2013-04-25 19:21:00,54.8,30.3,30.25,WSW,252,5.0,16.0,39,0.00,,---,0.00,VWS V13.01,2013-04-25 23:21:00,
2013-04-25 19:26:00,54.6,30.8,30.25,WNW,286,5.0,16.0,40,0.00,,---,0.00,VWS V13.01,2013-04-25 23:26:00,
2013-04-25 19:31:00,54.4,30.6,30.25,SSW,212,5.0,10.0,40,0.00,,---,0.00,VWS V13.01,2013-04-25 23:31:00,
2013-04-25 19:36:00,54.3,31.1,30.25,WSW,257,8.0,11.0,41,0.00,,---,0.00,VWS V13.01,2013-04-25 23:36:00,
2013-04-25 19:41:00,54.2,31.0,30.25,SW,232,10.0,19.0,41,0.00,,---,0.00,VWS V13.01,2013-04-25 23:41:00,
2013-04-25 19:46:00,54.2,31.0,30.25,West,262,9.0,19.0,41,0.00,,---,0.00,VWS V13.01,2013-04-25 23:46:00,
2013-04-25 19:51:00,54.1,30.9,30.26,WSW,253,4.0,19.0,41,0.00,,---,0.00,VWS V13.01,2013-04-25 23:51:00,
2013-04-25 19:56:00,54.0,31.5,30.26,SW,219,8.0,19.0,42,0.00,,---,0.00,VWS V13.01,2013-04-25 23:56:00,
2013-04-25 20:01:00,53.9,31.4,30.26,SW,233,4.0,8.0,42,0.00,,---,0.00,VWS V13.01,2013-04-26 00:01:00,
2013-04-25 20:06:00,53.9,31.4,30.26,WSW,237,6.0,9.0,42,0.00,,---,0.00,VWS V13.01,2013-04-26 00:06:00,
2013-04-25 20:11:00,53.7,31.8,30.26,WSW,252,1.0,9.0,43,0.00,,---,0.00,VWS V13.01,2013-04-26 00:11:00,
2013-04-25 20:16:00,53.5,32.1,30.27,SW,230,1.0,9.0,44,0.00,,---,0.00,VWS V13.01,2013-04-26 00:16:00,
2013-04-25 20:21:00,53.4,32.0,30.27,SW,236,5.0,9.0,44,0.00,,---,0.00,VWS V13.01,2013-04-26 00:21:00,
2013-04-25 20:26:00,53.3,32.0,30.27,SW,229,6.0,9.0,44,0.00,,---,0.00,VWS V13.01,2013-04-26 00:26:00,
2013-04-25 20:31:00,53.3,30.8,30.27,SW,236,17.0,18.0,42,0.00,,---,0.00,VWS V13.01,2013-04-26 00:31:00,
2013-04-25 20:36:00,53.3,31.4,30.28,WSW,248,4.0,18.0,43,0.00,,---,0.00,VWS V13.01,2013-04-26 00:36:00,
2013-04-25 20:41:00,53.1,31.2,30.28,West,261,8.0,18.0,43,0.00,,---,0.00,VWS V13.01,2013-04-26 00:41:00,
2013-04-25 20:46:00,52.8,31.5,30.28,NNW,336,6.0,18.0,44,0.00,,---,0.00,VWS V13.01,2013-04-26 00:46:00,
2013-04-25 20:51:00,52.6,31.3,30.28,West,275,7.0,18.0,44,0.00,,---,0.00,VWS V13.01,2013-04-26 00:51:00,
2013-04-25 20:56:00,52.4,31.7,30.29,WSW,257,7.0,18.0,45,0.00,,---,0.00,VWS V13.01,2013-04-26 00:56:00,
2013-04-25 21:01:00,52.3,31.6,30.29,West,273,2.0,8.0,45,0.00,,---,0.00,VWS V13.01,2013-04-26 01:01:00,
2013-04-25 21:06:00,52.1,32.0,30.29,West,272,5.0,8.0,46,0.00,,---,0.00,VWS V13.01,2013-04-26 01:06:00,
2013-04-25 21:11:00,52.0,31.9,30.29,WSW,239,6.0,9.0,46,0.00,,---,0.00,VWS V13.01,2013-04-26 01:11:00,
2013-04-25 21:16:00,51.9,32.3,30.30,WSW,258,4.0,9.0,47,0.00,,---,0.00,VWS V13.01,2013-04-26 01:16:00,
2013-04-25 21:21:00,51.8,32.8,30.31,West,274,1.0,9.0,48,0.00,,---,0.00,VWS V13.01,2013-04-26 01:21:00,
2013-04-25 21:26:00,51.7,33.7,30.31,West,262,3.0,9.0,50,0.00,,---,0.00,VWS V13.01,2013-04-26 01:26:00,
2013-04-25 21:31:00,51.5,35.0,30.31,SW,233,7.0,15.0,53,0.00,,---,0.00,VWS V13.01,2013-04-26 01:31:00,
2013-04-25 21:36:00,51.1,34.6,30.31,WSW,243,4.0,15.0,53,0.00,,---,0.00,VWS V13.01,2013-04-26 01:36:00,
2013-04-25 21:41:00,51.0,35.0,30.32,WSW,242,8.0,15.0,54,0.00,,---,0.00,VWS V13.01,2013-04-26 01:41:00,
2013-04-25 21:46:00,51.0,34.5,30.32,West,279,3.0,15.0,53,0.00,,---,0.00,VWS V13.01,2013-04-26 01:46:00,
2013-04-25 21:51:00,51.0,35.0,30.32,West,263,2.0,15.0,54,0.00,,---,0.00,VWS V13.01,2013-04-26 01:51:00,
2013-04-25 21:56:00,51.0,35.0,30.32,West,260,4.0,15.0,54,0.00,,---,0.00,VWS V13.01,2013-04-26 01:56:00,
2013-04-25 22:01:00,51.0,35.0,30.33,WNW,283,2.0,3.0,54,0.00,,---,0.00,VWS V13.01,2013-04-26 02:01:00,
2013-04-25 22:06:00,50.9,34.9,30.33,NNW,333,5.0,12.0,54,0.00,,---,0.00,VWS V13.01,2013-04-26 02:06:00,
2013-04-25 22:11:00,50.5,35.8,30.34,WNW,298,10.0,17.0,57,0.00,,---,0.00,VWS V13.01,2013-04-26 02:11:00,
2013-04-25 22:16:00,49.9,36.6,30.34,NNW,336,13.0,17.0,60,0.00,,---,0.00,VWS V13.01,2013-04-26 02:16:00,
2013-04-25 22:21:00,49.2,37.6,30.35,North,5,9.0,17.0,64,0.00,,---,0.00,VWS V13.01,2013-04-26 02:21:00,
2013-04-25 22:26:00,48.6,37.8,30.34,NNW,327,7.0,17.0,66,0.00,,---,0.00,VWS V13.01,2013-04-26 02:26:00,
2013-04-25 22:31:00,48.1,38.0,30.35,NW,314,8.0,11.0,68,0.00,,---,0.00,VWS V13.01,2013-04-26 02:31:00,
2013-04-25 22:36:00,47.6,38.0,30.35,NNW,335,8.0,12.0,69,0.00,,---,0.00,VWS V13.01,2013-04-26 02:36:00,
2013-04-25 22:41:00,47.1,38.2,30.35,North,349,5.0,13.0,71,0.00,,---,0.00,VWS V13.01,2013-04-26 02:41:00,
2013-04-25 22:46:00,46.7,38.2,30.36,NNW,336,5.0,14.0,72,0.00,,---,0.00,VWS V13.01,2013-04-26 02:46:00,
2013-04-25 22:51:00,46.5,38.3,30.36,NNE,24,6.0,14.0,73,0.00,,---,0.00,VWS V13.01,2013-04-26 02:51:00,
2013-04-25 22:56:00,46.3,38.1,30.36,West,277,4.0,14.0,73,0.00,,---,0.00,VWS V13.01,2013-04-26 02:56:00,
2013-04-25 23:01:00,46.1,38.3,30.36,North,355,12.0,12.0,74,0.00,,---,0.00,VWS V13.01,2013-04-26 03:01:00,
2013-04-25 23:06:00,46.0,38.2,30.37,NNE,13,2.0,12.0,74,0.00,,---,0.00,VWS V13.01,2013-04-26 03:06:00,
2013-04-25 23:11:00,45.8,38.3,30.37,NNW,348,4.0,12.0,75,0.00,,---,0.00,VWS V13.01,2013-04-26 03:11:00,
2013-04-25 23:16:00,45.7,38.2,30.38,NW,324,3.0,12.0,75,0.00,,---,0.00,VWS V13.01,2013-04-26 03:16:00,
2013-04-25 23:21:00,45.6,38.2,30.38,North,355,4.0,12.0,75,0.00,,---,0.00,VWS V13.01,2013-04-26 03:21:00,
2013-04-25 23:26:00,45.4,38.0,30.37,ENE,67,3.0,12.0,75,0.00,,---,0.00,VWS V13.01,2013-04-26 03:26:00,
2013-04-25 23:31:00,45.3,37.5,30.38,North,11,5.0,7.0,74,0.00,,---,0.00,VWS V13.01,2013-04-26 03:31:00,
2013-04-25 23:36:00,45.1,35.5,30.38,NW,309,2.0,10.0,69,0.00,,---,0.00,VWS V13.01,2013-04-26 03:36:00,
2013-04-25 23:41:00,45.1,35.2,30.38,NNW,329,3.0,10.0,68,0.00,,---,0.00,VWS V13.01,2013-04-26 03:41:00,
2013-04-25 23:46:00,45.1,35.2,30.38,North,355,2.0,10.0,68,0.00,,---,0.00,VWS V13.01,2013-04-26 03:46:00,
2013-04-25 23:51:00,45.1,35.2,30.38,NNW,328,4.0,10.0,68,0.00,,---,0.00,VWS V13.01,2013-04-26 03:51:00,
2013-04-25 23:56:00,44.9,35.4,30.38,NW,317,1.0,10.0,69,0.00,,---,0.00,VWS V13.01,2013-04-26 03:56:00,